User: anonymous
Location: Zlin
(49.2330°N, 17.6670°E)
Time: 20:58:44
(UTC+02:00)
Language:

ISS - Orbit

View from above orbital plane
View from above orbital plane
View from above satellite
View from above satellite

Ground track
Ground track

The orbit data is extracted from the following two-line orbital elements,

1 25544U 98067A   14106.52836806  .00021834  00000-0  39168-3 0   966
2 25544 051.6491 045.1435 0003766 293.0153 061.2086 15.49836869881756
Epoch (UTC): 16 April 2014 12:40:51
Eccentricity: 0.0003766
inclination: 51.6491°
perigee height: 414 km
apogee height: 420 km
right ascension of ascending node: 45.1435°
argument of perigee: 293.0153°
revolutions per day: 15.49836869
mean anomaly at epoch: 61.2086°
orbit number at epoch: 88175

The dashed part of the orbit path shows where the satellite is in the earth's shadow,  

DLR